,,Stat5,,Stat1,,Stat2,,Stat3,,Stat4,,Wind1,,Wind1,
time,status,PA1M_AVG,status,PR1M_SUM,status,RH1M_AVG,status,SR1M_AVG,status,TA1M_AVG,status,W1dAve1m,status,W1sAve1m,
2000-11-05, 00:00:01,VALID,919.266,VALID,0,VALID,96.9688,VALID,-0.0339617,VALID,20.4287,VALID,95,VALID,1.28457,
2000-11-05, 00:01:00,VALID,919.241,VALID,0,VALID,97.1341,VALID,0,VALID,20.4448,VALID,95,VALID,1.4043,
2000-11-05, 00:02:00,VALID,919.242,VALID,0,VALID,97.2193,VALID,0,VALID,20.4513,VALID,85,VALID,0.714063,
2000-11-05, 00:03:00,VALID,919.218,VALID,0,VALID,96.97,VALID,-0.0339617,VALID,20.4125,VALID,58,VALID,1.20938,
2000-11-05, 00:04:00,VALID,919.197,VALID,0,VALID,96.8785,VALID,-0.0169808,VALID,20.3837,VALID,62,VALID,0.804888,
2000-11-05, 00:05:00,VALID,919.186,VALID,0,VALID,97.0476,VALID,0,VALID,20.3606,VALID,94,VALID,1.69263,
2000-11-05, 00:06:00,VALID,919.165,VALID,0,VALID,97.2205,VALID,-0.0169808,VALID,20.3641,VALID,84,VALID,1.2557,
2000-11-05, 00:07:00,VALID,919.148,VALID,0,VALID,97.2294,VALID,0,VALID,20.3482,VALID,83,VALID,1.4798,
2000-11-05, 00:08:00,VALID,919.13,VALID,0,VALID,97.2956,VALID,-0.0169808,VALID,20.3449,VALID,85,VALID,1.21114,
2000-11-05, 00:09:00,VALID,919.119,VALID,0,VALID,97.2994,VALID,0,VALID,20.3414,VALID,89,VALID,1.3734,
2000-11-05, 00:10:00,VALID,919.095,VALID,0,VALID,97.3909,VALID,-0.0679233,VALID,20.3414,VALID,102,VALID,1.08772,
2000-11-05, 00:11:00,VALID,919.108,VALID,0,VALID,97.4342,VALID,0,VALID,20.3514,VALID,94,VALID,0.6125,
2000-11-05, 00:12:00,VALID,919.12,VALID,0,VALID,97.5066,VALID,-0.0339617,VALID,20.3414,VALID,100,VALID,0.407422,
2000-11-05, 00:13:00,VALID,919.131,VALID,0,VALID,97.5626,VALID,-0.0169808,VALID,20.3479,VALID,359,VALID,0.160547,
2000-11-05, 00:14:00,VALID,919.153,VALID,0,VALID,97.5422,VALID,-0.0169808,VALID,20.3253,VALID,300,VALID,0.0527872,
2000-11-05, 00:15:00,VALID,919.164,VALID,0,VALID,97.5867,VALID,-0.0339617,VALID,20.3285,VALID,309,VALID,0.417752,
2000-11-05, 00:16:00,VALID,919.152,VALID,0,VALID,97.5346,VALID,0,VALID,20.3089,VALID,294,VALID,0.319643,
2000-11-05, 00:17:00,VALID,919.137,VALID,0,VALID,97.5651,VALID,0,VALID,20.3091,VALID,296,VALID,0.127534,
2000-11-05, 00:18:00,VALID,919.123,VALID,0,VALID,97.5473,VALID,-0.0509425,VALID,20.293,VALID,298,VALID,0.11761,
2000-11-05, 00:19:00,VALID,919.09,VALID,0,VALID,97.5944,VALID,0,VALID,20.2965,VALID,299,VALID,0.0544872,
2000-11-05, 00:20:00,VALID,919.071,VALID,0,VALID,97.677,VALID,0,VALID,20.3056,VALID,301,VALID,0.0246394,
2000-11-05, 00:21:00,VALID,919.052,VALID,0,VALID,97.7393,VALID,-0.0169808,VALID,20.3153,VALID,112,VALID,0.405804,
2000-11-05, 00:22:00,VALID,919.038,VALID,0,VALID,97.8029,VALID,0,VALID,20.332,VALID,109,VALID,0.362664,
2000-11-05, 00:23:00,VALID,919.025,VALID,0,VALID,97.8258,VALID,0,VALID,20.3509,VALID,155,VALID,0.158654,
2000-11-05, 00:24:00,VALID,919.035,VALID,0,VALID,97.7991,VALID,0,VALID,20.3573,VALID,269,VALID,0,
2000-11-05, 00:25:00,VALID,919.033,VALID,0,VALID,97.7393,VALID,-0.0169808,VALID,20.3573,VALID,297,VALID,0,
2000-11-05, 00:26:00,VALID,919.052,VALID,0,VALID,97.6885,VALID,0,VALID,20.3511,VALID,297,VALID,0,
2000-11-05, 00:27:00,VALID,919.068,VALID,0,VALID,97.6554,VALID,-0.0169808,VALID,20.3546,VALID,297,VALID,0,
2000-11-05, 00:28:00,VALID,919.076,VALID,0,VALID,97.6478,VALID,-0.0169808,VALID,20.3514,VALID,297,VALID,0,
2000-11-05, 00:29:00,VALID,919.084,VALID,0,VALID,97.6694,VALID,0,VALID,20.3613,VALID,297,VALID,0,
2000-11-05, 00:30:00,VALID,919.094,VALID,0,VALID,97.663,VALID,-0.0169808,VALID,20.3514,VALID,297,VALID,0,
2000-11-05, 00:31:00,VALID,919.078,VALID,0,VALID,97.7165,VALID,0,VALID,20.3646,VALID,297,VALID,0,
2000-11-05, 00:32:00,VALID,919.068,VALID,0,VALID,97.7177,VALID,-0.0169808,VALID,20.371,VALID,298,VALID,0,
2000-11-05, 00:33:00,VALID,919.06,VALID,0,VALID,97.8182,VALID,-0.0169808,VALID,20.3904,VALID,299,VALID,0,
2000-11-05, 00:34:00,VALID,919.056,VALID,0,VALID,97.8932,VALID,-0.0169808,VALID,20.4165,VALID,299,VALID,0,
2000-11-05, 00:35:00,VALID,919.053,VALID,0,VALID,97.794,VALID,-0.0169808,VALID,20.4001,VALID,299,VALID,0.000411184,
2000-11-05, 00:36:00,VALID,919.044,VALID,0,VALID,97.6427,VALID,0,VALID,20.3772,VALID,304,VALID,0.376736,
2000-11-05, 00:37:00,VALID,919.022,VALID,0,VALID,97.6338,VALID,-0.0169808,VALID,20.377,VALID,87,VALID,0.596354,
2000-11-05, 00:38:00,VALID,918.994,VALID,0,VALID,97.7521,VALID,-0.0169808,VALID,20.4125,VALID,103,VALID,0.84329,
2000-11-05, 00:39:00,VALID,918.988,VALID,0,VALID,97.794,VALID,-0.0339617,VALID,20.4354,VALID,103,VALID,0.811444,
2000-11-05, 00:40:00,VALID,918.971,VALID,0,VALID,97.7393,VALID,-0.0169808,VALID,20.4419,VALID,98,VALID,0.560296,
2000-11-05, 00:41:00,VALID,918.959,VALID,0,VALID,97.6885,VALID,0,VALID,20.4446,VALID,111,VALID,0.449519,
2000-11-05, 00:42:00,VALID,918.959,VALID,0,VALID,97.6847,VALID,-0.0169808,VALID,20.4615,VALID,99,VALID,0.466146,
2000-11-05, 00:43:00,VALID,918.933,VALID,0,VALID,97.5715,VALID,-0.0169808,VALID,20.4448,VALID,97,VALID,0.819643,
2000-11-05, 00:44:00,VALID,918.908,VALID,0,VALID,97.5092,VALID,0,VALID,20.4548,VALID,92,VALID,1.10896,
2000-11-05, 00:45:00,VALID,918.881,VALID,0,VALID,97.4431,VALID,-0.0169808,VALID,20.455,VALID,92,VALID,0.991602,
2000-11-05, 00:46:00,VALID,918.871,VALID,0,VALID,97.3324,VALID,-0.0169808,VALID,20.4289,VALID,82,VALID,0.813672,
2000-11-05, 00:47:00,VALID,918.863,VALID,0,VALID,97.293,VALID,-0.0339617,VALID,20.416,VALID,97,VALID,0.729519,
2000-11-05, 00:48:00,VALID,918.85,VALID,0,VALID,97.3121,VALID,-0.0169808,VALID,20.3996,VALID,98,VALID,0.624132,
2000-11-05, 00:49:00,VALID,918.84,VALID,0,VALID,97.3591,VALID,-0.0169808,VALID,20.3999,VALID,86,VALID,0.475446,
2000-11-05, 00:50:00,VALID,918.839,VALID,0,VALID,97.3515,VALID,0,VALID,20.3937,VALID,98,VALID,0.854519,
2000-11-05, 00:51:00,VALID,918.814,VALID,0,VALID,97.3947,VALID,0,VALID,20.3937,VALID,101,VALID,0.281039,
2000-11-05, 00:52:00,VALID,918.797,VALID,0,VALID,97.3922,VALID,-0.0339617,VALID,20.3802,VALID,89,VALID,0.265224,
2000-11-05, 00:53:00,VALID,918.778,VALID,0,VALID,97.4723,VALID,-0.0169808,VALID,20.3897,VALID,87,VALID,0.0637019,
2000-11-05, 00:54:00,VALID,918.765,VALID,0,VALID,97.499,VALID,0,VALID,20.3996,VALID,87,VALID,0.000223214,
2000-11-05, 00:55:00,VALID,918.74,VALID,0,VALID,97.5372,VALID,-0.0169808,VALID,20.4125,VALID,99,VALID,0.508635,
2000-11-05, 00:56:00,VALID,918.731,VALID,0,VALID,97.5257,VALID,-0.0169808,VALID,20.4319,VALID,105,VALID,0.457732,
2000-11-05, 00:57:00,VALID,918.712,VALID,0,VALID,97.588,VALID,-0.0339617,VALID,20.4548,VALID,109,VALID,0.0960938,
2000-11-05, 00:58:00,VALID,918.703,VALID,0,VALID,97.5715,VALID,-0.0169808,VALID,20.4772,VALID,109,VALID,0.0819257,
2000-11-05, 00:59:00,VALID,918.679,VALID,0,VALID,97.4545,VALID,-0.0169808,VALID,20.4871,VALID,109,VALID,0.0563767,
2000-11-05, 01:00:00,VALID,918.655,VALID,0,VALID,97.3197,VALID,-0.0169808,VALID,20.4903,VALID,97,VALID,0,
2000-11-05, 01:01:00,VALID,918.638,VALID,0,VALID,97.1163,VALID,-0.0339617,VALID,20.461,VALID,83,VALID,0,
2000-11-05, 01:02:00,VALID,918.618,VALID,0,VALID,97.0832,VALID,0,VALID,20.4508,VALID,90,VALID,0,
2000-11-05, 01:03:00,VALID,918.6,VALID,0,VALID,97.143,VALID,0.0339617,VALID,20.457,VALID,102,VALID,0,
2000-11-05, 01:04:00,VALID,918.575,VALID,0,VALID,97.2243,VALID,0.0339617,VALID,20.4635,VALID,104,VALID,0,
2000-11-05, 01:05:00,VALID,918.563,VALID,0,VALID,97.265,VALID,0,VALID,20.4702,VALID,94,VALID,0,
2000-11-05, 01:06:00,VALID,918.555,VALID,0,VALID,97.1506,VALID,0,VALID,20.4642,VALID,82,VALID,0,
2000-11-05, 01:07:00,VALID,918.527,VALID,0,VALID,97.073,VALID,0,VALID,20.4277,VALID,91,VALID,0,
2000-11-05, 01:08:00,VALID,918.525,VALID,0,VALID,97.1391,VALID,0,VALID,20.4252,VALID,104,VALID,0,
2000-11-05, 01:09:00,VALID,918.522,VALID,0,VALID,97.1391,VALID,0,VALID,20.4158,VALID,113,VALID,0.804036,
2000-11-05, 01:10:00,VALID,918.501,VALID,0,VALID,97.0934,VALID,0.0169808,VALID,20.3668,VALID,105,VALID,1.06597,
2000-11-05, 01:11:00,VALID,918.506,VALID,0,VALID,97.1557,VALID,0,VALID,20.3374,VALID,99,VALID,1.0324,
2000-11-05, 01:12:00,VALID,918.5,VALID,0,VALID,97.2129,VALID,0,VALID,20.3118,VALID,102,VALID,0.94109,
2000-11-05, 01:13:00,VALID,918.488,VALID,0,VALID,97.2332,VALID,0.0339617,VALID,20.276,VALID,115,VALID,0.941306,
2000-11-05, 01:14:00,VALID,918.499,VALID,0,VALID,97.3426,VALID,0.0339617,VALID,20.2564,VALID,109,VALID,0.713141,
2000-11-05, 01:15:00,VALID,918.493,VALID,0,VALID,97.4812,VALID,0.0339617,VALID,20.2731,VALID,111,VALID,0.784255,
2000-11-05, 01:16:00,VALID,918.478,VALID,0,VALID,97.4723,VALID,0.0339617,VALID,20.2639,VALID,100,VALID,0.371429,
2000-11-05, 01:17:00,VALID,918.483,VALID,0,VALID,97.4977,VALID,0,VALID,20.2338,VALID,132,VALID,0.504687,
2000-11-05, 01:18:00,VALID,918.465,VALID,0,VALID,97.6058,VALID,0,VALID,20.2636,VALID,134,VALID,0.544336,
2000-11-05, 01:19:00,VALID,918.438,VALID,0,VALID,97.5918,VALID,0,VALID,20.2833,VALID,134,VALID,0.320508,
2000-11-05, 01:20:00,VALID,918.405,VALID,0,VALID,97.4583,VALID,0.0169808,VALID,20.28,VALID,148,VALID,0.00654561,
2000-11-05, 01:21:00,VALID,918.377,VALID,0,VALID,97.3401,VALID,0,VALID,20.2572,VALID,140,VALID,0.000434028,
2000-11-05, 01:22:00,VALID,918.342,VALID,0,VALID,97.3846,VALID,-0.0169808,VALID,20.2639,VALID,139,VALID,0,
2000-11-05, 01:23:00,VALID,918.306,VALID,0,VALID,97.3744,VALID,0,VALID,20.2467,VALID,138,VALID,0,
2000-11-05, 01:24:00,VALID,918.282,VALID,0,VALID,97.3846,VALID,0,VALID,20.2502,VALID,138,VALID,0,
2000-11-05, 01:25:00,VALID,918.255,VALID,0,VALID,97.3006,VALID,0,VALID,20.251,VALID,138,VALID,0,
2000-11-05, 01:26:00,VALID,918.25,VALID,0,VALID,97.3591,VALID,0,VALID,20.2402,VALID,138,VALID,0,
2000-11-05, 01:27:00,VALID,918.238,VALID,0,VALID,97.3833,VALID,0,VALID,20.2631,VALID,135,VALID,0,
2000-11-05, 01:28:00,VALID,918.223,VALID,0,VALID,97.3617,VALID,0.0339617,VALID,20.2666,VALID,130,VALID,0,
2000-11-05, 01:29:00,VALID,918.211,VALID,0,VALID,97.4125,VALID,0.0169808,VALID,20.2658,VALID,127,VALID,0,
2000-11-05, 01:30:00,VALID,918.19,VALID,0,VALID,97.3629,VALID,0.0339617,VALID,20.2726,VALID,125,VALID,0,
2000-11-05, 01:31:00,VALID,918.178,VALID,0,VALID,97.1786,VALID,0.0679233,VALID,20.2499,VALID,112,VALID,0,
2000-11-05, 01:32:00,VALID,918.179,VALID,0,VALID,97.0819,VALID,-0.0339617,VALID,20.234,VALID,101,VALID,0,
2000-11-05, 01:33:00,VALID,918.177,VALID,0,VALID,97.0768,VALID,-0.101885,VALID,20.2619,VALID,101,VALID,0,
2000-11-05, 01:34:00,VALID,918.181,VALID,0,VALID,96.839,VALID,-0.101885,VALID,20.2391,VALID,101,VALID,0,
2000-11-05, 01:35:00,VALID,918.166,VALID,0,VALID,96.6559,VALID,-0.0509425,VALID,20.2234,VALID,101,VALID,0,
2000-11-05, 01:36:00,VALID,918.164,VALID,0,VALID,96.6051,VALID,-0.0509425,VALID,20.2033,VALID,101,VALID,0,
2000-11-05, 01:37:00,VALID,918.165,VALID,0,VALID,96.5364,VALID,0,VALID,20.1955,VALID,68,VALID,0,
2000-11-05, 01:38:00,VALID,918.142,VALID,0,VALID,96.5962,VALID,0.0339617,VALID,20.1794,VALID,33,VALID,0,
2000-11-05, 01:39:00,VALID,918.129,VALID,0,VALID,96.7081,VALID,0,VALID,20.1791,VALID,40,VALID,0,
2000-11-05, 01:40:00,VALID,918.118,VALID,0,VALID,96.9153,VALID,0,VALID,20.2082,VALID,43,VALID,0,
2000-11-05, 01:41:00,VALID,918.097,VALID,0,VALID,96.9967,VALID,0.0169808,VALID,20.2152,VALID,43,VALID,0,
2000-11-05, 01:42:00,VALID,918.087,VALID,0,VALID,97.04,VALID,0.0509425,VALID,20.2082,VALID,43,VALID,0,
2000-11-05, 01:43:00,VALID,918.093,VALID,0,VALID,97.0717,VALID,0,VALID,20.2084,VALID,43,VALID,0,
2000-11-05, 01:44:00,VALID,918.095,VALID,0,VALID,97.1074,VALID,0,VALID,20.2187,VALID,43,VALID,0,
2000-11-05, 01:45:00,VALID,918.093,VALID,0,VALID,97.1061,VALID,0,VALID,20.1982,VALID,43,VALID,0,
2000-11-05, 01:46:00,VALID,918.116,VALID,0,VALID,97.1595,VALID,0.0169808,VALID,20.2017,VALID,43,VALID,0,
2000-11-05, 01:47:00,VALID,918.108,VALID,0,VALID,97.2218,VALID,-0.0339617,VALID,20.1866,VALID,43,VALID,0,
2000-11-05, 01:48:00,VALID,918.109,VALID,0,VALID,97.2739,VALID,-0.0509425,VALID,20.1874,VALID,43,VALID,0,
2000-11-05, 01:49:00,VALID,918.097,VALID,0,VALID,97.3579,VALID,-0.0509425,VALID,20.1774,VALID,43,VALID,0,
2000-11-05, 01:50:00,VALID,918.096,VALID,0,VALID,97.4558,VALID,-0.0679233,VALID,20.1841,VALID,43,VALID,0,
2000-11-05, 01:51:00,VALID,918.086,VALID,0,VALID,97.5232,VALID,-0.0849042,VALID,20.1874,VALID,43,VALID,0,
2000-11-05, 01:52:00,VALID,918.081,VALID,0,VALID,97.5867,VALID,-0.0679233,VALID,20.1742,VALID,43,VALID,0,
2000-11-05, 01:53:00,VALID,918.079,VALID,0,VALID,97.6491,VALID,-0.0849042,VALID,20.1836,VALID,39,VALID,0,
2000-11-05, 01:54:00,VALID,918.081,VALID,0,VALID,97.6554,VALID,-0.0849042,VALID,20.1841,VALID,264,VALID,0,
2000-11-05, 01:55:00,VALID,918.087,VALID,0,VALID,97.6592,VALID,-0.101885,VALID,20.1777,VALID,264,VALID,0,
2000-11-05, 01:56:00,VALID,918.084,VALID,0,VALID,97.6808,VALID,-0.0679233,VALID,20.1749,VALID,254,VALID,0,
2000-11-05, 01:57:00,VALID,918.089,VALID,0,VALID,97.6948,VALID,-0.101885,VALID,20.1518,VALID,253,VALID,0,
2000-11-05, 01:58:00,VALID,918.116,VALID,0,VALID,97.6986,VALID,-0.0679233,VALID,20.1359,VALID,255,VALID,0,
2000-11-05, 01:59:00,VALID,918.102,VALID,0,VALID,97.719,VALID,-0.101885,VALID,20.126,VALID,263,VALID,0,
2000-11-05, 02:00:00,VALID,918.122,VALID,0,VALID,97.7495,VALID,-0.0679233,VALID,20.1227,VALID,268,VALID,0,
2000-11-05, 02:01:00,VALID,918.115,VALID,0,VALID,97.8106,VALID,-0.0509425,VALID,20.123,VALID,267,VALID,0,
2000-11-05, 02:02:00,VALID,918.117,VALID,0,VALID,97.8195,VALID,-0.101885,VALID,20.123,VALID,247,VALID,0,
2000-11-05, 02:03:00,VALID,918.115,VALID,0,VALID,97.822,VALID,-0.0849042,VALID,20.123,VALID,249,VALID,0,
2000-11-05, 02:04:00,VALID,918.113,VALID,0,VALID,97.8309,VALID,-0.0679233,VALID,20.1289,VALID,247,VALID,0,
2000-11-05, 02:05:00,VALID,918.102,VALID,0,VALID,97.7902,VALID,-0.0679233,VALID,20.1252,VALID,251,VALID,0,
2000-11-05, 02:06:00,VALID,918.102,VALID,0,VALID,97.7406,VALID,-0.0679233,VALID,20.1227,VALID,260,VALID,0,
2000-11-05, 02:07:00,VALID,918.1,VALID,0,VALID,97.7254,VALID,-0.101885,VALID,20.1362,VALID,264,VALID,0,
2000-11-05, 02:08:00,VALID,918.09,VALID,0,VALID,97.6821,VALID,-0.0849042,VALID,20.1359,VALID,251,VALID,0,
2000-11-05, 02:09:00,VALID,918.084,VALID,0,VALID,97.6669,VALID,-0.118866,VALID,20.1456,VALID,252,VALID,0,
2000-11-05, 02:10:00,VALID,918.079,VALID,0,VALID,97.6859,VALID,-0.101885,VALID,20.1553,VALID,252,VALID,0,
2000-11-05, 02:11:00,VALID,918.081,VALID,0,VALID,97.7076,VALID,-0.101885,VALID,20.1556,VALID,252,VALID,0,
2000-11-05, 02:12:00,VALID,918.071,VALID,0,VALID,97.6961,VALID,-0.0849042,VALID,20.1715,VALID,252,VALID,0,
2000-11-05, 02:13:00,VALID,918.072,VALID,0,VALID,97.6821,VALID,-0.0849042,VALID,20.1642,VALID,251,VALID,0,
2000-11-05, 02:14:00,VALID,918.066,VALID,0,VALID,97.7254,VALID,-0.0679233,VALID,20.1903,VALID,252,VALID,0,
2000-11-05, 02:15:00,VALID,918.051,VALID,0,VALID,97.7521,VALID,-0.0849042,VALID,20.2035,VALID,252,VALID,0,
2000-11-05, 02:16:00,VALID,918.051,VALID,0,VALID,97.7826,VALID,-0.0849042,VALID,20.2296,VALID,207,VALID,0,
2000-11-05, 02:17:00,VALID,918.045,VALID,0,VALID,97.7584,VALID,-0.0169808,VALID,20.238,VALID,123,VALID,0,
2000-11-05, 02:18:00,VALID,918.032,VALID,0,VALID,97.6974,VALID,0.0169808,VALID,20.2378,VALID,123,VALID,0,
2000-11-05, 02:19:00,VALID,918.029,VALID,0,VALID,97.6618,VALID,0,VALID,20.2378,VALID,122,VALID,0,
2000-11-05, 02:20:00,VALID,918.024,VALID,0,VALID,97.5651,VALID,0.0339617,VALID,20.2273,VALID,122,VALID,0,
2000-11-05, 02:21:00,VALID,918.004,VALID,0,VALID,97.5359,VALID,0.0509425,VALID,20.2283,VALID,121,VALID,0,
2000-11-05, 02:22:00,VALID,918.005,VALID,0,VALID,97.4609,VALID,0,VALID,20.2022,VALID,121,VALID,0,
2000-11-05, 02:23:00,VALID,917.991,VALID,0,VALID,97.4214,VALID,0,VALID,20.1727,VALID,121,VALID,0,
2000-11-05, 02:24:00,VALID,917.976,VALID,0,VALID,97.452,VALID,0,VALID,20.1605,VALID,121,VALID,0,
2000-11-05, 02:25:00,VALID,917.966,VALID,0,VALID,97.5283,VALID,0.0169808,VALID,20.1468,VALID,122,VALID,0,
2000-11-05, 02:26:00,VALID,917.965,VALID,0,VALID,97.6236,VALID,0,VALID,20.1597,VALID,122,VALID,0,
2000-11-05, 02:27:00,VALID,917.944,VALID,0,VALID,97.6796,VALID,0.0169808,VALID,20.1761,VALID,122,VALID,0,
2000-11-05, 02:28:00,VALID,917.931,VALID,0,VALID,97.7063,VALID,0.0169808,VALID,20.199,VALID,122,VALID,0,
2000-11-05, 02:29:00,VALID,917.914,VALID,0,VALID,97.6923,VALID,0,VALID,20.2022,VALID,122,VALID,0,
2000-11-05, 02:30:00,VALID,917.91,VALID,0,VALID,97.6427,VALID,0.0169808,VALID,20.2084,VALID,122,VALID,0,
2000-11-05, 02:31:00,VALID,917.895,VALID,0,VALID,97.5753,VALID,0.0339617,VALID,20.2154,VALID,122,VALID,0,
2000-11-05, 02:32:00,VALID,917.884,VALID,0,VALID,97.5015,VALID,0,VALID,20.2246,VALID,122,VALID,0,
2000-11-05, 02:33:00,VALID,917.872,VALID,0,VALID,97.4812,VALID,0.0509425,VALID,20.2351,VALID,122,VALID,0,
2000-11-05, 02:34:00,VALID,917.853,VALID,0,VALID,97.4125,VALID,0.0169808,VALID,20.2214,VALID,122,VALID,0,
2000-11-05, 02:35:00,VALID,917.841,VALID,0,VALID,97.3451,VALID,0,VALID,20.2313,VALID,122,VALID,0,
2000-11-05, 02:36:00,VALID,917.838,VALID,0,VALID,97.3502,VALID,0,VALID,20.2308,VALID,122,VALID,0,
2000-11-05, 02:37:00,VALID,917.826,VALID,0,VALID,97.3172,VALID,0.0509425,VALID,20.2311,VALID,122,VALID,0,
2000-11-05, 02:38:00,VALID,917.814,VALID,0,VALID,97.2994,VALID,0.0169808,VALID,20.2214,VALID,122,VALID,0,
2000-11-05, 02:39:00,VALID,917.817,VALID,0,VALID,97.2803,VALID,0.0339617,VALID,20.2181,VALID,122,VALID,0,
2000-11-05, 02:40:00,VALID,917.797,VALID,0,VALID,97.2701,VALID,0,VALID,20.2184,VALID,122,VALID,0,
2000-11-05, 02:41:00,VALID,917.788,VALID,0,VALID,97.2663,VALID,0.0339617,VALID,20.2157,VALID,122,VALID,0,
2000-11-05, 02:42:00,VALID,917.788,VALID,0,VALID,97.2549,VALID,0.0169808,VALID,20.202,VALID,120,VALID,0,
2000-11-05, 02:43:00,VALID,917.789,VALID,0,VALID,97.2193,VALID,0.0169808,VALID,20.1796,VALID,115,VALID,0,
2000-11-05, 02:44:00,VALID,917.784,VALID,0,VALID,97.1239,VALID,0,VALID,20.1635,VALID,101,VALID,0,
2000-11-05, 02:45:00,VALID,917.77,VALID,0,VALID,97.0794,VALID,0.0169808,VALID,20.1277,VALID,98,VALID,0,
2000-11-05, 02:46:00,VALID,917.774,VALID,0,VALID,97.129,VALID,0.0339617,VALID,20.1021,VALID,98,VALID,0,
2000-11-05, 02:47:00,VALID,917.76,VALID,0,VALID,97.1862,VALID,0,VALID,20.0633,VALID,98,VALID,0,
2000-11-05, 02:48:00,VALID,917.745,VALID,0,VALID,97.2956,VALID,-0.0679233,VALID,20.0489,VALID,98,VALID,0,
2000-11-05, 02:49:00,VALID,917.745,VALID,0,VALID,97.4329,VALID,-0.0849042,VALID,20.0489,VALID,98,VALID,0,
2000-11-05, 02:50:00,VALID,917.724,VALID,0,VALID,97.4736,VALID,-0.101885,VALID,20.0193,VALID,106,VALID,0,
2000-11-05, 02:51:00,VALID,917.717,VALID,0,VALID,97.3884,VALID,-0.0679233,VALID,20.0101,VALID,124,VALID,0,
2000-11-05, 02:52:00,VALID,917.715,VALID,0,VALID,97.335,VALID,-0.0509425,VALID,19.9647,VALID,155,VALID,0,
2000-11-05, 02:53:00,VALID,917.712,VALID,0,VALID,97.4024,VALID,-0.0849042,VALID,19.949,VALID,164,VALID,0,
2000-11-05, 02:54:00,VALID,917.7,VALID,0,VALID,97.4977,VALID,-0.0679233,VALID,19.9135,VALID,169,VALID,0,
2000-11-05, 02:55:00,VALID,917.692,VALID,0,VALID,97.6859,VALID,-0.101885,VALID,19.8971,VALID,161,VALID,0,
2000-11-05, 02:56:00,VALID,917.689,VALID,0,VALID,97.8462,VALID,-0.101885,VALID,19.8779,VALID,123,VALID,0,
2000-11-05, 02:57:00,VALID,917.679,VALID,0,VALID,97.9644,VALID,-0.0849042,VALID,19.8906,VALID,106,VALID,0,
2000-11-05, 02:58:00,VALID,917.685,VALID,0,VALID,97.9987,VALID,-0.118866,VALID,19.8906,VALID,105,VALID,0,
2000-11-05, 02:59:00,VALID,917.673,VALID,0,VALID,98.0394,VALID,-0.101885,VALID,19.8911,VALID,96,VALID,0,
2000-11-05, 03:00:00,VALID,917.672,VALID,0,VALID,98.0852,VALID,-0.0849042,VALID,19.8747,VALID,90,VALID,0,
2000-11-05, 03:01:00,VALID,917.665,VALID,0,VALID,98.089,VALID,-0.0849042,VALID,19.865,VALID,89,VALID,0,
2000-11-05, 03:02:00,VALID,917.668,VALID,0,VALID,98.1017,VALID,-0.0339617,VALID,19.8478,VALID,89,VALID,0,
2000-11-05, 03:03:00,VALID,917.68,VALID,0,VALID,98.1196,VALID,0,VALID,19.8245,VALID,89,VALID,0,
2000-11-05, 03:04:00,VALID,917.695,VALID,0,VALID,98.1641,VALID,0,VALID,19.8277,VALID,89,VALID,0,
2000-11-05, 03:05:00,VALID,917.705,VALID,0,VALID,98.1895,VALID,0,VALID,19.8148,VALID,89,VALID,0,
2000-11-05, 03:06:00,VALID,917.723,VALID,0,VALID,98.2035,VALID,0.0169808,VALID,19.815,VALID,89,VALID,0,
2000-11-05, 03:07:00,VALID,917.726,VALID,0,VALID,98.1958,VALID,0,VALID,19.8088,VALID,89,VALID,0,
2000-11-05, 03:08:00,VALID,917.73,VALID,0,VALID,98.2315,VALID,0,VALID,19.8051,VALID,89,VALID,0,
2000-11-05, 03:09:00,VALID,917.736,VALID,0,VALID,98.2696,VALID,0,VALID,19.8349,VALID,89,VALID,0,
2000-11-05, 03:10:00,VALID,917.734,VALID,0,VALID,98.3001,VALID,0,VALID,19.8312,VALID,89,VALID,0,
2000-11-05, 03:11:00,VALID,917.734,VALID,0,VALID,98.2899,VALID,-0.0169808,VALID,19.8282,VALID,89,VALID,0,
2000-11-05, 03:12:00,VALID,917.752,VALID,0,VALID,98.2671,VALID,0,VALID,19.8183,VALID,89,VALID,0,
2000-11-05, 03:13:00,VALID,917.739,VALID,0,VALID,98.2747,VALID,0,VALID,19.8083,VALID,89,VALID,0,
2000-11-05, 03:14:00,VALID,917.76,VALID,0,VALID,98.2505,VALID,0,VALID,19.8019,VALID,89,VALID,0,
2000-11-05, 03:15:00,VALID,917.774,VALID,0,VALID,98.2493,VALID,0.0169808,VALID,19.7954,VALID,89,VALID,0,
2000-11-05, 03:16:00,VALID,917.784,VALID,0,VALID,98.2785,VALID,0.0169808,VALID,19.7956,VALID,89,VALID,0,
2000-11-05, 03:17:00,VALID,917.789,VALID,0,VALID,98.3192,VALID,0,VALID,19.8048,VALID,89,VALID,0,
2000-11-05, 03:18:00,VALID,917.794,VALID,0,VALID,98.3688,VALID,0.0169808,VALID,19.8317,VALID,89,VALID,0,
2000-11-05, 03:19:00,VALID,917.787,VALID,0,VALID,98.3955,VALID,-0.0169808,VALID,19.8245,VALID,89,VALID,0,
2000-11-05, 03:20:00,VALID,917.78,VALID,0,VALID,98.4196,VALID,-0.0169808,VALID,19.8247,VALID,89,VALID,0,
2000-11-05, 03:21:00,VALID,917.768,VALID,0,VALID,98.412,VALID,0,VALID,19.8282,VALID,89,VALID,0,
2000-11-05, 03:22:00,VALID,917.761,VALID,0,VALID,98.4247,VALID,0,VALID,19.8247,VALID,89,VALID,0,
2000-11-05, 03:23:00,VALID,917.747,VALID,0,VALID,98.4044,VALID,0.0339617,VALID,19.8051,VALID,94,VALID,0,
2000-11-05, 03:24:00,VALID,917.739,VALID,0,VALID,98.3904,VALID,0,VALID,19.7989,VALID,104,VALID,0,
2000-11-05, 03:25:00,VALID,917.724,VALID,0,VALID,98.3917,VALID,0,VALID,19.8061,VALID,104,VALID,0,
2000-11-05, 03:26:00,VALID,917.724,VALID,0,VALID,98.3853,VALID,-0.0339617,VALID,19.813,VALID,104,VALID,0,
2000-11-05, 03:27:00,VALID,917.725,VALID,0,VALID,98.3777,VALID,0,VALID,19.8125,VALID,104,VALID,0,
2000-11-05, 03:28:00,VALID,917.717,VALID,0,VALID,98.3612,VALID,0,VALID,19.8026,VALID,104,VALID,0,
2000-11-05, 03:29:00,VALID,917.717,VALID,0,VALID,98.3548,VALID,0,VALID,19.8123,VALID,104,VALID,0,
2000-11-05, 03:30:00,VALID,917.712,VALID,0,VALID,98.3472,VALID,-0.0169808,VALID,19.8319,VALID,106,VALID,0,
2000-11-05, 03:31:00,VALID,917.725,VALID,0,VALID,98.3306,VALID,-0.0169808,VALID,19.8379,VALID,120,VALID,0,
2000-11-05, 03:32:00,VALID,917.731,VALID,0,VALID,98.2454,VALID,-0.0169808,VALID,19.8349,VALID,135,VALID,0,
2000-11-05, 03:33:00,VALID,917.726,VALID,0,VALID,98.1361,VALID,-0.0169808,VALID,19.8158,VALID,169,VALID,0,
2000-11-05, 03:34:00,VALID,917.731,VALID,0,VALID,98.0839,VALID,0,VALID,19.7956,VALID,185,VALID,0,
2000-11-05, 03:35:00,VALID,917.732,VALID,0,VALID,98.0967,VALID,0,VALID,19.7964,VALID,198,VALID,0,
2000-11-05, 03:36:00,VALID,917.734,VALID,0,VALID,98.1157,VALID,0.0169808,VALID,19.7733,VALID,214,VALID,0,
2000-11-05, 03:37:00,VALID,917.741,VALID,0,VALID,98.1412,VALID,0,VALID,19.7728,VALID,217,VALID,0,
2000-11-05, 03:38:00,VALID,917.74,VALID,0,VALID,98.1806,VALID,0,VALID,19.7738,VALID,219,VALID,0,
2000-11-05, 03:39:00,VALID,917.739,VALID,0,VALID,98.2048,VALID,0,VALID,19.7897,VALID,226,VALID,0,
2000-11-05, 03:40:00,VALID,917.746,VALID,0,VALID,98.2111,VALID,0.0169808,VALID,19.8029,VALID,226,VALID,0,
2000-11-05, 03:41:00,VALID,917.757,VALID,0,VALID,98.2353,VALID,0,VALID,19.8125,VALID,226,VALID,0,
2000-11-05, 03:42:00,VALID,917.754,VALID,0,VALID,98.2315,VALID,0,VALID,19.8183,VALID,226,VALID,0,
2000-11-05, 03:43:00,VALID,917.762,VALID,0,VALID,98.1869,VALID,0,VALID,19.8217,VALID,226,VALID,0,
2000-11-05, 03:44:00,VALID,917.77,VALID,0,VALID,98.0827,VALID,0.0169808,VALID,19.8153,VALID,226,VALID,0,